This demonstration page uses our WeatherBlox Daily Observations layout. Learn more.

Left ArrowRight Arrow

38.80484, -77.04692

Hourly Observations for October 7, 2021

Temp ( °F °C ) Dew Point ( °F °C ) Humidity (%) Winds ( mph kmh ) Pressure ( in mb ) Visibility ( mi km ) Precip ( " mm )
12:52 am 00:52 Cloudy 67 19.4 62 16.7 84 84 E 3 6 30.33 1027 10 16 0.00 0.00
1:52 am 01:52 Mostly Cloudy 67 19.4 61 16.1 81 81 ENE 6 9 30.32 1027 10 16 0.00 0.00
2:52 am 02:52 Mostly Cloudy 66 18.9 61 16.1 84 84 E 6 9 30.32 1027 10 16 0.00 0.00
3:52 am 03:52 Partly Cloudy 65 18.3 61 16.1 87 87 Calm 30.31 1027 10 16 0.00 0.00
4:06 am 04:06 Cloudy 65 18.3 61 16.1 87 87 Calm 30.32 1027 10 16 0.00 0.00
4:52 am 04:52 Mostly Cloudy 65 18.3 60 15.6 84 84 ENE 6 9 30.31 1027 10 16 0.00 0.00
5:52 am 05:52 Cloudy 65 18.3 60 15.6 84 84 ENE 5 7 30.31 1026 10 16 0.00 0.00
6:52 am 06:52 Cloudy 66 18.9 60 15.6 81 81 ENE 6 9 30.32 1027 10 16 0.00 0.00
7:52 am 07:52 Cloudy 67 19.4 61 16.1 81 81 ENE 3 6 30.32 1027 10 16 0.00 0.00
8:52 am 08:52 Mostly Cloudy 67 19.4 61 16.1 81 81 ENE 8 13 30.32 1027 10 16 0.00 0.00
9:52 am 09:52 Mostly Cloudy 69 20.6 60 15.6 73 73 E 3 6 30.32 1027 10 16 0.00 0.00
10:52 am 10:52 Mostly Cloudy 72 22.2 61 16.1 68 68 NE 3 6 30.32 1027 10 16 0.00 0.00
11:44 am 11:44 Mostly Cloudy 72 22.2 60 15.6 66 66 N 3 6 30.32 1027 10 16 0.00 0.00
11:52 am 11:52 Mostly Cloudy 72 22.2 60 15.6 66 66 Calm 30.32 1027 10 16 0.00 0.00
12:52 pm 12:52 Mostly Cloudy 74 23.3 60 15.6 62 62 Calm 30.29 1026 10 16 0.00 0.00
1:52 pm 13:52 Mostly Cloudy 76 24.4 60 15.6 58 58 NNE 5 7 30.27 1025 10 16 0.00 0.00
2:52 pm 14:52 Mostly Cloudy 76 24.4 59 15 56 56 ENE 3 6 30.25 1024 10 16 0.00 0.00
3:52 pm 15:52 Mostly Cloudy 79 26.1 59 15 50 50 ENE 3 6 30.24 1024 10 16 0.00 0.00
4:52 pm 16:52 Mostly Cloudy 78 25.6 59 15 52 52 Calm 30.22 1024 10 16 0.00 0.00
5:52 pm 17:52 Mostly Cloudy 74 23.3 62 16.7 67 67 SE 3 6 30.21 1023 10 16 0.00 0.00
6:52 pm 18:52 Mostly Cloudy 74 23.3 60 15.6 62 62 ESE 6 9 30.20 1023 10 16 0.00 0.00
7:52 pm 19:52 Mostly Cloudy 72 22.2 62 16.7 71 71 SSE 5 7 30.19 1023 10 16 0.00 0.00
8:52 pm 20:52 Mostly Cloudy 70 21.1 64 17.8 82 82 S 6 9 30.19 1023 10 16 0.00 0.00
9:52 pm 21:52 Mostly Cloudy 70 21.1 64 17.8 82 82 S 5 7 30.20 1023 10 16 0.00 0.00
10:52 pm 22:52 Cloudy 70 21.1 64 17.8 82 82 S 3 6 30.20 1023 10 16 0.00 0.00
11:52 pm 23:52 Cloudy 69 20.6 64 17.8 84 84 S 5 7 30.19 1022 10 16 0.00 0.00

Powered by AerisWeather